User: anonymous   Login
Location: Mason Neck State Park
(38.6428°N, 77.1981°W)
Time: 22:39:06
(UTC-04:00)
Language:

Cosmos 1400 Rocket - Orbit

View from above orbital plane
View from above orbital plane
View from above satellite
View from above satellite

Ground track
Ground track

The orbit data is extracted from the following two-line orbital elements,

1 13403U 82079B   16207.52557910 -.00000004  00000-0 -18216-5 0  9996
2 13403  81.1703 283.4033 0032735 274.0881  85.6601 15.06260821847541
Epoch (UTC): 25 July 2016 12:36:50
Eccentricity: 0.0032735
inclination: 81.1703°
perigee height: 525 km
apogee height: 570 km
right ascension of ascending node: 283.4033°
argument of perigee: 274.0881°
revolutions per day: 15.06260821
mean anomaly at epoch: 85.6601°
orbit number at epoch: 84754

The dashed part of the orbit path shows where the satellite is in the earth's shadow,  

DLR